Other Public Products
Issued by NWS Charleston, SC

Current Version | Previous Version | Graphics & Text | Print | Product List | Glossary On
Versions: 1 2 3 4 5 6 7 8 9 10 11 12 13 14 15 16 17 18 19 20 21 22 23 24 25 26 27 28 29 30 31 32 33 34 35 36 37 38 39 40 41 42 43 44 45 46 47 48 49 50
624 FPUS82 KCHS 251227 OPUCHS TEST...KCHS/KSAV Gateway Observations...TEST National Weather Service Charleston SC 800 AM EDT SAT MAR 25 2017 NOTE: "fair" indicates few or no clouds below 12,000 feet with no significant weather and/or obstructions to visibility. SCZ050-WAZ558-NCZ071-TXZ119-213-PAZ071-DCZ001-FLZ074-172-MI076- NYZ176-178-MAZ016-IL014-TNZ027-NJZ106-GAZ044-MD014-251300- ...Gateway Observations for Charleston International... CITY SKY/WX TMP DP RH WIND PRES REMARKS Chas Airport MOCLDY 58 53 84 CALM 30.32R 6HR MIN TEMP: 54; 6HR MAX TEMP: 61; Seattle PTCLDY 44 41 89 S13 30.05S 6HR MIN TEMP: 44; 6HR MAX TEMP: 46; 6HR PCP: 0.01; Charlotte MOCLDY 54 49 83 CALM 30.34R 6HR MIN TEMP: 51; 6HR MAX TEMP: 59; Dallas DFW PTCLDY 56 44 64 W13 29.96R 6HR MIN TEMP: 56; 6HR MAX TEMP: 66; Dallas Love PTCLDY 56 44 64 W9 29.98R 6HR MIN TEMP: 56; 6HR MAX TEMP: 66; Philladelphia CLOUDY 53 46 77 SW9 30.16R 6HR MIN TEMP: 47; 6HR MAX TEMP: 54; 6HR PCP: TRACE; Wash National CLOUDY 56 49 77 S7 30.20R 6HR MIN TEMP: 54; 6HR MAX TEMP: 58; Baltimore CLOUDY 59 48 67 SW6 30.17R 6HR MIN TEMP: 57; 6HR MAX TEMP: 61; Miami PTCLDY 71 60 68 E10 30.17R 6HR MIN TEMP: 70; 6HR MAX TEMP: 72; Detroit CLOUDY 44 40 85 NE7 30.15R FOG 6HR MIN TEMP: 44; 6HR MAX TEMP: 47; Newark CLOUDY 52 39 61 SW3 30.14R 6HR MIN TEMP: 48; 6HR MAX TEMP: 52; Laguardia CLOUDY 53 38 56 SW3 30.13R 6HR MIN TEMP: 53; 6HR MAX TEMP: 55; J F K CLOUDY 55 41 59 W6 30.15R 6HR MIN TEMP: 42; 6HR MAX TEMP: 55; Boston Logan CLOUDY 42 38 85 N5 30.17R 6HR MIN TEMP: 41; 6HR MAX TEMP: 47; 6HR PCP: TRACE; Ft. Lauderdale CLOUDY 73 58 59 E14 30.17R 6HR MIN TEMP: 70; 6HR MAX TEMP: 73; 6HR PCP: TRACE; Chicago O`Hare LGT RAIN 41 38 89 N14 30.05R FOG 6HR MIN TEMP: 41; 6HR MAX TEMP: 42; 6HR PCP: 0.16; Chicago Midway LGT RAIN 42 40 92 NE9G21 30.05R 6HR MIN TEMP: 40; 6HR MAX TEMP: 42; 6HR PCP: 0.02; Houston Bush RAIN 72 68 87 SW7 29.97R 6HR MIN TEMP: 67; 6HR MAX TEMP: 73; 6HR PCP: 0.02; Houston Hobby LGT RAIN 72 69 90 SW9 29.98R FOG 6HR MIN TEMP: 69; 6HR MAX TEMP: 72; Nashville CLOUDY 66 52 60 S17G26 30.08S 6HR MIN TEMP: 61; 6HR MAX TEMP: 66; Atlanta CLOUDY 56 52 86 E7 30.29R 6HR MIN TEMP: 56; 6HR MAX TEMP: 63; $$ GAZ044-118-TXZ119-213-NCZ071-DCZ001-MDZ014-506-PAZ021-071-NJZ106- NYZ176-178-MAZ106-OHZ011-021-055-MIZ076-KYZ091-ILZ014-INZ047- MNZ060-ONZ431-251300- ...Gateway Observations for Savannah International... CITY SKY/WX TMP DP RH WIND PRES REMARKS Savannah Arpt CLOUDY 58 55 90 N6 30.31R 6HR MIN TEMP: 55; 6HR MAX TEMP: 61; Atlanta CLOUDY 56 52 86 E7 30.29R 6HR MIN TEMP: 56; 6HR MAX TEMP: 63; Charlotte MOCLDY 54 49 83 CALM 30.34R 6HR MIN TEMP: 51; 6HR MAX TEMP: 59; Dallas DFW PTCLDY 56 44 64 W13 29.96R 6HR MIN TEMP: 56; 6HR MAX TEMP: 66; Houston Bush RAIN 72 68 87 SW7 29.97R 6HR MIN TEMP: 67; 6HR MAX TEMP: 73; 6HR PCP: 0.02; Wash National CLOUDY 56 49 77 S7 30.20R 6HR MIN TEMP: 54; 6HR MAX TEMP: 58; Wash Dulles MOCLDY 56 46 69 S7 30.19R 6HR MIN TEMP: 55; 6HR MAX TEMP: 59; Baltimore CLOUDY 59 48 67 SW6 30.17R 6HR MIN TEMP: 57; 6HR MAX TEMP: 61; Philadelphia CLOUDY 53 46 77 SW9 30.16R 6HR MIN TEMP: 47; 6HR MAX TEMP: 54; 6HR PCP: TRACE; Newark CLOUDY 52 39 61 SW3 30.14R 6HR MIN TEMP: 48; 6HR MAX TEMP: 52; Laguardia CLOUDY 53 38 56 SW3 30.13R 6HR MIN TEMP: 53; 6HR MAX TEMP: 55; J F K CLOUDY 55 41 59 W6 30.15R 6HR MIN TEMP: 42; 6HR MAX TEMP: 55; Boston CLOUDY 42 38 85 N5 30.17R 6HR MIN TEMP: 41; 6HR MAX TEMP: 47; 6HR PCP: TRACE; Pittsburg CLOUDY 62 50 64 SW7 30.14R 6HR MIN TEMP: 62; 6HR MAX TEMP: 65; Akron CLOUDY 59 50 72 SW7 30.13R 6HR MIN TEMP: 59; 6HR MAX TEMP: 64; Cleveland CLOUDY 61 51 70 S6 30.12R 6HR MIN TEMP: 53; 6HR MAX TEMP: 64; Cincinnati CLOUDY 55 49 80 S10 30.12R 6HR MIN TEMP: 55; 6HR MAX TEMP: 61; Columbus CLOUDY 58 49 73 S7 30.15R Detroit CLOUDY 44 40 85 NE7 30.15R FOG 6HR MIN TEMP: 44; 6HR MAX TEMP: 47; Chicago O`Hare LGT RAIN 41 38 89 N14 30.05R FOG 6HR MIN TEMP: 41; 6HR MAX TEMP: 42; 6HR PCP: 0.16; Minneapolis CLOUDY 37 30 75 NE10 30.17R WCI 30 6HR MIN TEMP: 37; 6HR MAX TEMP: 39; Indianapolis MOCLDY 60 52 74 SE9 30.03S 6HR MIN TEMP: 59; 6HR MAX TEMP: 63; Toronto Canada LGT RAIN 36 34 93 NE9 30.24R WCI 29 $$

USA.gov is the U.S. government's official web portal to all federal, state and local government web resources and services.